Location: Mexico
(19.4000°N, 99.1500°W)
Time: 11:53:14
(UTC-06:00)

ISS - Pass Details

Date: 16 September 2020
Orbit: 419 x 421 km, 51.6° (Epoch: 30 September)

Event Time Altitude Azimuth Distance (km) Brightness Sun altitude
Rises 19:38:08 0° 249° (WSW) 2,351 1.2 -15.0°
Reaches altitude 10° 19:40:43 10° 269° (W) 1,489 0.4 -15.6°
Maximum altitude 19:43:02 17° 314° (NW) 1,119 -0.9 -16.2°
Drops below altitude 10° 19:45:22 10° 358° (N) 1,491 -0.8 -16.7°
Sets 19:47:58 0° 19° (NNE) 2,355 -0.1 -17.3°
